Location: Étang Rond
(42.7927°N, 1.0661°E)
Time: 22:14:43
(UTC+00:00)

Cosmos 2369 Rocket - Pass Details

Date: 08 November 2025
Orbit: 826 x 853 km, 71.0° (Epoch: 12 December)

Event Time Altitude Azimuth Distance (km) Brightness Sun altitude
Rises 05:28:46 0° 345° (NNW) 3,406 5.1 -13.2°
Reaches altitude 10° 05:31:49 10° 1° (N) 2,473 4.5 -12.6°
Maximum altitude 05:36:07 22° 50° (NE) 1,792 4.4 -11.8°
Drops below altitude 10° 05:40:24 10° 99° (E) 2,474 6.2 -11.1°
Sets 05:43:26 0° 115° (ESE) 3,409 7.2 -10.5°
